Latest Weather Observations for Bickley

IDW60801

Issued at 2:02 am WST Tuesday 23 December 2014 (issued every 30 minutes, with the page automatically refreshed every 10 minutes)

About weather observations | Map of weather stations | Latest weather observations for WA | Other Formats
Station Details ID: 009240 Name: BICKLEY Lat: -32.01 Lon: 116.14 Height: 384.0 m
Data from the previous 72 hours. | See also: Recent months at Bickley
Date/Time
WST
Temp
°C
App
Temp
°C
Dew
Point
Rel
Hum
%
Delta-T
°C
Wind Press
QNH
hPa
Press
MSL
hPa
Rain
since 9 am
mm
Dir
 
Spd
km/h
Gust
km/h
Spd
kts
Gust
kts
23/02:00am 14.1 - 8.1 67 3.1 - - - - - - - 0.0
23/01:30am 14.7 - 8.2 65 3.3 - - - - - - - 0.0
23/01:00am 15.2 - 8.4 64 3.5 - - - - - - - 0.0
23/12:30am 15.8 - 8.3 61 3.9 - - - - - - - 0.0
23/12:00am 16.6 - 8.3 58 4.3 - - - - - - - 0.0
 
Date/Time
WST
Temp
°C
App
Temp
°C
Dew
Point
Rel
Hum
%
Delta-T
°C
Wind Press
QNH
hPa
Press
MSL
hPa
Rain
since 9 am
mm
Dir
 
Spd
km/h
Gust
km/h
Spd
kts
Gust
kts
22/11:30pm 17.4 - 8.5 56 4.7 - - - - - - - 0.0
22/11:00pm 17.7 - 9.3 58 4.5 - - - - - - - 0.0
22/10:30pm 17.9 - 10.3 61 4.1 - - - - - - - 0.0
22/10:00pm 17.4 - 10.5 64 3.8 - - - - - - - 0.0
22/09:30pm 17.6 - 10.5 63 3.9 - - - - - - - 0.0
22/09:00pm 17.9 - 10.8 63 3.9 - - - - - - - 0.0
22/08:30pm 18.4 - 11.0 62 4.1 - - - - - - - 0.0
22/08:00pm 19.0 - 11.1 60 4.4 - - - - - - - 0.0
22/07:30pm 19.9 - 11.1 57 4.9 - - - - - - - 0.0
22/07:00pm 21.0 - 10.8 52 5.7 - - - - - - - 0.0
22/06:30pm 22.5 - 10.3 46 6.8 - - - - - - - 0.0
22/06:00pm 23.4 - 10.1 43 7.4 - - - - - - - 0.0
22/05:30pm 24.2 - 11.2 44 7.4 - - - - - - - 0.0
22/05:00pm 25.1 - 12.0 44 7.6 - - - - - - - 0.0
22/04:30pm 25.3 - 11.8 43 7.8 - - - - - - - 0.0
22/04:00pm 25.7 - 12.2 43 7.9 - - - - - - - 0.0
22/03:30pm 27.2 - 11.7 38 9.0 - - - - - - - 0.0
22/03:00pm 26.5 - 10.6 37 9.1 - - - - - - - 0.0
22/02:30pm 26.9 - 11.0 37 9.2 - - - - - - - 0.0
22/02:00pm 26.2 - 10.4 37 9.0 - - - - - - - 0.0
22/01:30pm 26.6 - 12.6 42 8.3 - - - - - - - 0.0
22/01:00pm 25.0 - 11.9 44 7.6 - - - - - - - 0.0
22/12:30pm 25.0 - 12.2 44 7.5 - - - - - - - 0.0
22/12:00pm 24.2 - 11.9 46 7.1 - - - - - - - 0.0
22/11:30am 24.3 - 11.9 45 7.2 - - - - - - - 0.0
22/11:00am 22.9 - 12.5 52 6.0 - - - - - - - 0.0
22/10:30am 22.5 - 12.4 52 5.8 - - - - - - - 0.0
22/10:00am 21.8 - 13.4 59 4.9 - - - - - - - 0.0
22/09:30am 21.5 - 13.4 60 4.7 - - - - - - - 0.0
22/09:00am 20.1 - 13.1 64 4.0 - - - - - - - 0.0
22/08:30am 19.1 - 13.1 68 3.5 - - - - - - - 0.0
22/08:00am 18.1 - 13.0 72 2.9 - - - - - - - 0.0
22/07:30am 17.0 - 12.7 76 2.4 - - - - - - - 0.0
22/07:00am 15.9 - 12.6 81 1.9 - - - - - - - 0.0
22/06:30am 14.5 - 12.4 87 1.2 - - - - - - - 0.0
22/06:00am 13.8 - 12.2 90 0.9 - - - - - - - 0.0
22/05:30am 13.3 - 12.0 92 0.7 - - - - - - - 0.0
22/05:00am 12.7 - 11.6 93 0.6 - - - - - - - 0.0
22/04:30am 13.1 - 11.7 91 0.8 - - - - - - - 0.0
22/04:00am 13.2 - 11.4 89 1.0 - - - - - - - 0.0
22/03:30am 13.6 - 11.5 87 1.1 - - - - - - - 0.0
22/03:00am 13.8 - 11.3 85 1.4 - - - - - - - 0.0
22/02:30am 14.2 - 11.5 84 1.5 - - - - - - - 0.0
22/02:00am 14.8 - 11.6 81 1.8 - - - - - - - 0.0
22/01:30am 15.3 - 11.5 78 2.1 - - - - - - - 0.0
22/01:00am 15.7 - 11.3 75 2.4 - - - - - - - 0.0
22/12:30am 16.5 - 11.2 71 2.9 - - - - - - - 0.0
22/12:00am 17.2 - 11.2 68 3.3 - - - - - - - 0.0
 
Date/Time
WST
Temp
°C
App
Temp
°C
Dew
Point
Rel
Hum
%
Delta-T
°C
Wind Press
QNH
hPa
Press
MSL
hPa
Rain
since 9 am
mm
Dir
 
Spd
km/h
Gust
km/h
Spd
kts
Gust
kts
21/11:30pm 17.6 - 10.7 64 3.8 - - - - - - - 0.0
21/11:00pm 18.2 - 10.6 61 4.2 - - - - - - - 0.0
21/10:30pm 18.4 - 10.3 59 4.4 - - - - - - - 0.0
21/10:00pm 19.0 - 10.0 56 4.9 - - - - - - - 0.0
21/09:30pm 19.9 - 10.0 53 5.4 - - - - - - - 0.0
21/09:00pm 20.4 - 9.6 50 5.9 - - - - - - - 0.0
21/08:30pm 20.7 - 9.6 49 6.0 - - - - - - - 0.0
21/08:00pm 21.2 - 9.8 48 6.3 - - - - - - - 0.0
21/07:30pm 22.1 - 9.9 46 6.7 - - - - - - - 0.0
21/07:00pm 23.5 - 9.9 42 7.6 - - - - - - - 0.0
21/06:30pm 24.9 - 9.2 37 8.7 - - - - - - - 0.0
21/06:00pm 25.6 - 9.4 36 9.0 - - - - - - - 0.0
21/05:30pm 26.3 - 9.6 35 9.4 - - - - - - - 0.0
21/05:00pm 25.8 - 9.2 35 9.2 - - - - - - - 0.0
21/04:30pm 26.0 - 9.8 36 9.1 - - - - - - - 0.0
21/04:00pm 27.3 - 10.5 35 9.6 - - - - - - - 0.0
21/03:30pm 26.8 - 10.5 36 9.3 - - - - - - - 0.0
21/03:00pm 26.5 - 9.4 34 9.6 - - - - - - - 0.0
21/02:30pm 26.6 - 9.5 34 9.6 - - - - - - - 0.0
21/02:00pm 26.0 - 9.8 36 9.1 - - - - - - - 0.0
21/01:30pm 25.7 - 9.9 37 8.9 - - - - - - - 0.0
21/01:00pm 25.5 - 10.1 38 8.7 - - - - - - - 0.0
21/12:30pm 24.8 - 10.7 41 8.0 - - - - - - - 0.0
21/12:00pm 24.4 - 10.7 42 7.8 - - - - - - - 0.0
21/11:30am 24.1 - 10.7 43 7.6 - - - - - - - 0.0
21/11:00am 22.9 - 10.3 45 7.0 - - - - - - - 0.0
21/10:30am 22.2 - 9.7 45 6.9 - - - - - - - 0.0
21/10:00am 21.3 - 9.5 47 6.4 - - - - - - - 0.0
21/09:30am 20.8 - 9.7 49 6.1 - - - - - - - 0.0
21/09:00am 19.7 - 10.1 54 5.3 - - - - - - - 0.0
21/08:30am 18.5 - 9.8 57 4.7 - - - - - - - 0.0
21/08:00am 17.7 - 10.3 62 4.0 - - - - - - - 0.0
21/07:30am 16.8 - 10.4 66 3.5 - - - - - - - 0.0
21/07:00am 15.5 - 10.1 70 2.9 - - - - - - - 0.0
21/06:30am 14.7 - 10.1 74 2.4 - - - - - - - 0.0
21/06:00am 13.2 - 10.0 81 1.7 - - - - - - - 0.0
21/05:30am 12.7 - 9.7 82 1.6 - - - - - - - 0.0
21/05:00am 12.7 - 9.7 82 1.6 - - - - - - - 0.0
21/04:30am 12.9 - 9.7 81 1.7 - - - - - - - 0.0
21/04:00am 13.2 - 9.6 79 1.9 - - - - - - - 0.0
21/03:30am 13.2 - 9.5 78 1.9 - - - - - - - 0.0
21/03:00am 13.4 - 9.5 77 2.0 - - - - - - - 0.0
21/02:30am 13.7 - 9.2 74 2.3 - - - - - - - 0.0
21/02:00am 14.0 - 9.2 73 2.5 - - - - - - - 0.0
21/01:30am 14.4 - 8.8 69 2.9 - - - - - - - 0.0
21/01:00am 14.9 - 9.1 68 3.0 - - - - - - - 0.0
21/12:30am 15.4 - 9.3 67 3.2 - - - - - - - 0.0
21/12:00am 16.0 - 7.7 58 4.2 - - - - - - - 0.0
 
Date/Time
WST
Temp
°C
App
Temp
°C
Dew
Point
Rel
Hum
%
Delta-T
°C
Wind Press
QNH
hPa
Press
MSL
hPa
Rain
since 9 am
mm
Dir
 
Spd
km/h
Gust
km/h
Spd
kts
Gust
kts
20/11:30pm 16.5 - 6.9 53 4.8 - - - - - - - 0.0
20/11:00pm 17.1 - 6.9 51 5.2 - - - - - - - 0.0
20/10:30pm 17.9 - 7.6 51 5.3 - - - - - - - 0.0
20/10:00pm 18.3 - 7.4 49 5.6 - - - - - - - 0.0
20/09:30pm 18.7 - 7.2 47 5.9 - - - - - - - 0.0
20/09:00pm 19.5 - 7.3 45 6.3 - - - - - - - 0.0
20/08:30pm 20.3 - 7.7 44 6.6 - - - - - - - 0.0
20/08:00pm 20.9 - 7.5 42 7.0 - - - - - - - 0.0
20/07:30pm 21.7 - 8.6 43 7.0 - - - - - - - 0.0
20/07:00pm 22.6 - 9.0 42 7.4 - - - - - - - 0.0
20/06:30pm 23.9 - 10.9 44 7.4 - - - - - - - 0.0
20/06:00pm 24.9 - 13.5 49 6.8 - - - - - - - 0.0
20/05:30pm 25.3 - 14.1 50 6.7 - - - - - - - 0.0
20/05:00pm 26.8 - 15.5 50 7.0 - - - - - - - 0.0
20/04:30pm 27.6 - 15.3 47 7.6 - - - - - - - 0.0
20/04:00pm 26.8 - 15.5 50 7.0 - - - - - - - 0.0
20/03:30pm 27.5 - 16.1 49 7.1 - - - - - - - 0.0
20/03:00pm 27.0 - 16.0 51 6.9 - - - - - - - 0.0
20/02:30pm 27.7 - 16.9 51 6.8 - - - - - - - 0.0
20/02:00pm 26.7 - 16.3 53 6.5 - - - - - - - 0.0
20/01:30pm 27.0 - 16.3 52 6.7 - - - - - - - 0.0
20/01:00pm 26.3 - 15.7 52 6.6 - - - - - - - 0.0
20/12:30pm 26.1 - 16.1 54 6.2 - - - - - - - 0.0
20/12:00pm 25.5 - 15.8 55 6.0 - - - - - - - 0.0
20/11:30am 25.7 - 16.0 55 6.0 - - - - - - - 0.0
20/11:00am 26.1 - 16.9 57 5.8 - - - - - - - 0.0
20/10:30am 26.0 - 16.5 55 6.0 - - - - - - - 0.0
20/10:00am 25.2 - 16.9 60 5.2 - - - - - - - 0.0
20/09:30am 25.0 - 17.5 63 4.8 - - - - - - - 0.0
20/09:00am 24.5 - 17.7 66 4.3 - - - - - - - 0.0
20/08:30am 24.3 - 17.3 65 4.4 - - - - - - - 0.0
20/08:00am 24.5 - 17.2 63 4.6 - - - - - - - 0.0
20/07:30am 24.5 - 17.5 65 4.4 - - - - - - - 0.0
20/07:00am 24.2 - 17.9 68 4.0 - - - - - - - 0.0
20/06:30am 23.5 - 17.7 70 3.7 - - - - - - - 0.0
20/06:00am 21.7 - 17.1 75 2.9 - - - - - - - 0.0
20/05:30am 21.2 - 16.8 76 2.7 - - - - - - - 0.0
20/05:00am 21.3 - 16.5 74 3.0 - - - - - - - 0.0
20/04:30am 21.4 - 16.4 73 3.1 - - - - - - - 0.0
20/04:00am 21.6 - 16.3 72 3.3 - - - - - - - 0.0
20/03:30am 21.8 - 16.3 71 3.4 - - - - - - - 0.0
20/03:00am 21.8 - 15.6 68 3.8 - - - - - - - 0.0
20/02:30am 22.5 - 15.8 66 4.1 - - - - - - - 0.0

Other Formats:

Comma delimited format used in spreadsheet applications
http://www.bom.gov.au/fwo/IDW60801/IDW60801.95610.axf

JavaScript Object Notation format (JSON) in row-major order
http://www.bom.gov.au/fwo/IDW60801/IDW60801.95610.json